#timestamp,LO_Frequency,Hit,StdDev 
1510300815.8,286046999.3,N
1510300835.6,286046998.7,N
1510300855.4,286047002.3,N
1510300875.3,286047004.5,N
1510300895.1,286047007.4,Y
1510300915.8,286047006.9,P
1510300935.7,286047004.8,N
1510300955.5,286047003.0,N
1510300975.3,286047004.5,N
1510300995.2,286047005.8,N
1510301015.9,286047003.3,N
1510301035.7,286047002.3,N
1510301055.6,286046999.9,N
1510301075.4,286046998.2,N
1510301095.2,286047000.7,N
1510301115.0,286046999.6,N
1510301115.9,286046999.6,N
1510301135.8,286046998.5,N
1510301155.6,286047002.3,N
1510301175.4,286046998.6,N
1510301195.3,286046998.6,N
1510301215.1,286047001.9,N
1510301235.8,286047001.4,N
1510301255.7,286047001.8,N
1510301275.5,286047001.2,N
1510301295.3,286046998.9,N
1510301315.2,286046995.3,N
1510301335.9,286046996.0,N
1510301355.7,286046992.4,N
1510301375.6,286046994.3,N
1510301395.4,286046990.3,N
1510301415.2,286046990.7,N
1510301435.0,286046994.1,N
1510301435.9,286046994.1,N
1510301455.8,286046991.8,N
1510301475.6,286046994.7,N
1510301495.4,286046993.1,N
1510301515.3,286046991.9,N
1510301535.1,286046992.2,N
1510301555.8,286046993.5,N
1510301575.7,286046993.9,N
1510301595.5,286046995.1,N
1510301615.3,286046997.7,N
1510301635.2,286046996.2,N
1510301655.9,286046996.1,N
1510301675.7,286046992.9,N
1510301695.6,286046991.8,N
1510301715.4,286046994.2,N
1510301735.2,286046994.0,N
1510301755.0,286046996.1,N
1510301756.0,286046996.1,N
1510301775.8,286046994.9,N
1510301795.6,286046997.0,N
1510301815.4,286046997.8,N
1510301835.3,286046998.1,N
1510301855.1,286047000.8,N
1510301875.8,286046997.8,N
1510301895.7,286046993.7,N
1510301915.5,286046990.1,Y
1510301935.3,286046997.1,P
1510301955.2,286046998.9,N
1510301975.9,286046998.6,N
1510301995.7,286046998.8,N
1510302015.6,286046999.3,N
1510302035.4,286047000.9,N
1510302055.2,286047000.1,N
1510302075.1,286047000.9,N
1510302076.0,286047000.9,N
1510302095.8,286046999.4,N
1510302115.6,286047000.7,N
1510302135.5,286047000.1,N
1510302155.3,286047001.4,N
1510302175.1,286047003.9,N
1510302195.8,286047004.5,N
1510302215.7,286047005.3,N
1510302235.5,286047003.4,N
1510302255.3,286046999.9,N
1510302275.2,286047001.8,N
1510302295.9,286047000.9,N
1510302315.7,286047000.8,N
1510302335.6,286046998.9,N
1510302355.4,286046999.1,N
1510302375.2,286047000.6,N
1510302395.1,286047001.3,N
1510302396.0,286047001.3,N
1510302415.8,286047000.9,N
1510302435.6,286046997.7,N
1510302455.5,286046997.3,N
1510302475.3,286046997.8,N
1510302495.1,286046993.8,Y
1510302515.9,286046996.2,P
1510302535.7,286046996.7,N
1510302555.5,286047002.8,N
1510302575.4,286047000.7,N
1510302595.2,286047002.5,N
1510302615.0,286047001.4,N
1510302615.9,286047001.4,N
1510302635.8,286047003.2,N
1510302655.6,286047005.6,N
1510302675.4,286047005.2,N
1510302695.2,286047003.4,N
1510302715.1,286047004.4,N
1510302716.0,286047004.4,N
1510302735.8,286047003.3,N
1510302755.6,286047003.1,N
1510302775.5,286047004.4,N
1510302795.3,286047004.8,N
1510302815.1,286047009.1,Y
1510302835.9,286047005.2,P
1510302855.7,286047004.3,P
1510302875.5,286047004.1,P
1510302895.4,286047004.7,Y
1510302915.2,286047000.5,P
1510302935.0,286046999.3,N
1510302935.9,286046999.3,N
1510302955.8,286046996.7,N
1510302975.6,286046995.3,N
1510302995.4,286046995.5,N
1510303015.3,286046999.6,N
1510303035.1,286046997.9,N
1510303036.0,286046997.9,N
1510303055.8,286046996.7,N
1510303075.7,286046997.0,N
1510303095.5,286047000.8,N
1510303115.3,286046999.1,N
1510303135.2,286047001.1,N
1510303155.9,286047000.7,N
1510303175.7,286047000.4,N
1510303195.5,286046998.1,N
1510303215.4,286046997.9,N
1510303235.2,286046995.4,N
1510303255.0,286046992.6,Y
1510303256.0,286046992.6,P
1510303275.8,286046994.2,N
1510303295.6,286046994.0,N
1510303315.4,286046997.9,N
1510303335.3,286046995.5,N
1510303355.1,286046997.8,N
1510303375.8,286047001.2,N
1510303395.7,286046996.7,N
1510303415.5,286046994.9,N
1510303435.3,286046993.7,N
1510303455.2,286046992.1,Y
1510303475.0,286046995.8,P
1510303475.9,286046995.8,P
1510303495.7,286046995.2,P
1510303515.6,286046996.5,Y
1510303535.4,286047001.4,P
1510303555.2,286047002.7,N
1510303575.1,286047000.8,N
1510303576.0,286047000.8,N
1510303595.8,286047000.4,N
1510303615.6,286047007.3,Y
1510303635.5,286047009.7,P
1510303655.3,286047010.4,N
1510303675.1,286047007.9,N
1510303695.9,286047009.7,N
1510303715.7,286047008.4,N
1510303735.5,286047008.8,N
1510303755.4,286047010.6,Y
1510303775.2,286047003.0,P
1510303795.0,286047001.9,N
1510303795.9,286047001.9,N
1510303815.8,286047003.3,N
1510303835.6,286047003.6,N
1510303855.4,286047003.6,N
1510303875.3,286047003.4,N
1510303895.1,286047001.8,N
1510303896.0,286047001.8,N
1510303915.8,286047000.7,N
1510303935.7,286046996.5,N
1510303955.5,286046999.1,N
1510303975.3,286046998.8,N
1510303995.1,286047000.1,N
1510304015.9,286047003.0,N
1510304035.7,286047002.7,N
1510304055.5,286047004.2,N
1510304075.4,286047003.1,N
1510304095.2,286047004.9,N
1510304115.0,286047006.8,N
1510304115.9,286047006.8,N
1510304135.8,286047007.2,N
1510304155.6,286047005.3,N
1510304175.4,286047000.9,N
1510304195.3,286046998.8,N
1510304215.1,286046999.6,N
1510304216.0,286046999.6,N
1510304235.8,286047001.1,N
1510304255.7,286046998.4,N
1510304275.5,286046996.7,N
1510304295.3,286046996.7,N
1510304315.1,286046996.2,N
1510304335.9,286046993.5,N
1510304355.7,286046995.4,N
1510304375.5,286046999.2,N
1510304395.4,286046998.9,N
